"Pseudo-MPEC" for P22jIy8

Created 2026 Jan 16 17:35:24 UT using Find_Orb

Click here for an explanation of pseudo-MPECs

 
 Astrometry: 
     P22jIy8* C2025 12 27.38139207 24 01.333+27 52 48.25   ~CRI5 22.05wXNEOCPF52
     P22jIy8  C2025 12 27.39296207 23 59.407+27 52 20.93   ~CRI5 22.03wXNEOCPF52
     P22jIy8  C2025 12 27.40462407 23 57.487+27 51 53.17   ~CRI5 22.05wXNEOCPF52

Station data:
(F52) Pan-STARRS 2, Haleakala  (N20.707382 W156.255910)  US/Hawaii.
   Observers J. Herman, T. Lowe, P. Minguez, A. Schultz, I. Smith. Measurers
   K. Chambers, T. de Boer, J. Fairlamb, H. Gao, M. Huber, C.-C. Lin, E.
   Magnier, Y. Ramanjooloo, R. Wainscoat, R. Weryk. 1.8-m Ritchey-Chrétien +
   CCD.

Orbital elements:  P22jIy8
   Perihelion 2026 Apr 7.508824 +/- 72.9 TT = 12:12:42.4 (JD 2461138.008824)
Epoch 2025 Dec 27.0 TT = JDT 2461036.5   Earth MOID: 0.1854      AutoNEOCP
M 311.548463479 +/- 32              (J2000 ecliptic)
n   0.477313543 +/- 0.32            Peri.  274.078831 +/- 70
a   1.621561946 +/- 0.724           Node   283.029746 +/- 28
e   0.43303961 +/- 0.279            Incl.   26.198312 +/- 18
P   2.065/754.207d         H 22.37  G  0.15   U 12.0  SR
q 0.919361382 +/- 0.45    Q 2.323762510 +/- 32.6
From 3 observations 2025 Dec. 27 (33.5 min); mean residual 0".06
Residuals in arcseconds: 
251227 F52  .06+  .03-    251227 F52  .11-  .05+    251227 F52  .06+  .03-    

Ephemerides (geocentric):
Date (UTC) HH   RA             Dec           delta  r     elong  mag " sig PA
---- --------  ------------   ------------  ------ ------ -----  --- --------
2026 01 16 18  06 14 57.842   +07 17 37.76  .31400 1.2709 152.7 21.4  56d 111
2026 01 16 19  06 14 48.485   +07 14 23.47  .31390 1.2707 152.6 21.4  56d 111
2026 01 16 20  06 14 39.129   +07 11 09.10  .31381 1.2704 152.5 21.4  56d 111
2026 01 16 21  06 14 29.776   +07 07 54.66  .31372 1.2701 152.4 21.4  56d 111
2026 01 16 22  06 14 20.424   +07 04 40.14  .31363 1.2699 152.3 21.4  56d 111
2026 01 16 23  06 14 11.074   +07 01 25.54  .31354 1.2696 152.2 21.4  56d 111
2026 01 17 00  06 14 01.725   +06 58 10.87  .31345 1.2693 152.1 21.4  56d 111
2026 01 17 01  06 13 52.379   +06 54 56.12  .31336 1.2691 152.0 21.4  56d 111
2026 01 17 02  06 13 43.034   +06 51 41.30  .31328 1.2688 151.9 21.4  56d 111
2026 01 17 03  06 13 33.691   +06 48 26.41  .31319 1.2685 151.8 21.4  56d 111
2026 01 17 04  06 13 24.350   +06 45 11.44  .31310 1.2682 151.7 21.4  56d 111
2026 01 17 05  06 13 15.011   +06 41 56.41  .31302 1.2680 151.6 21.4  56d 111
2026 01 17 06  06 13 05.674   +06 38 41.30  .31293 1.2677 151.5 21.4  56d 111
2026 01 17 07  06 12 56.339   +06 35 26.12  .31285 1.2674 151.4 21.4  56d 111
2026 01 17 08  06 12 47.006   +06 32 10.88  .31276 1.2672 151.3 21.4  56d 111
2026 01 17 09  06 12 37.675   +06 28 55.57  .31268 1.2669 151.2 21.4  56d 111
2026 01 17 10  06 12 28.346   +06 25 40.19  .31259 1.2666 151.1 21.4  56d 110
2026 01 17 11  06 12 19.020   +06 22 24.75  .31251 1.2664 151.0 21.4  56d 110
2026 01 17 12  06 12 09.695   +06 19 09.24  .31243 1.2661 150.9 21.4  56d 110
2026 01 17 13  06 12 00.373   +06 15 53.67  .31235 1.2658 150.9 21.4  56d 110
2026 01 17 14  06 11 51.053   +06 12 38.03  .31227 1.2655 150.8 21.4  56d 110
2026 01 17 15  06 11 41.735   +06 09 22.33  .31219 1.2653 150.7 21.4  56d 110
2026 01 17 16  06 11 32.420   +06 06 06.58  .31211 1.2650 150.6 21.4  56d 110
2026 01 17 17  06 11 23.107   +06 02 50.76  .31203 1.2647 150.5 21.4  56d 110
2026 01 17 18  06 11 13.796   +05 59 34.88  .31195 1.2645 150.4 21.4  56d 110
2026 01 17 19  06 11 04.488   +05 56 18.95  .31187 1.2642 150.3 21.4  56d 110
2026 01 17 20  06 10 55.182   +05 53 02.95  .31179 1.2639 150.2 21.4  56d 110
2026 01 17 21  06 10 45.879   +05 49 46.90  .31172 1.2637 150.1 21.4  57d 110
2026 01 17 22  06 10 36.578   +05 46 30.80  .31164 1.2634 150.0 21.4  57d 110
2026 01 17 23  06 10 27.280   +05 43 14.64  .31156 1.2631 149.9 21.4  57d 110
2026 01 18 00  06 10 17.984   +05 39 58.42  .31149 1.2629 149.8 21.4  57d 110
2026 01 18 01  06 10 08.691   +05 36 42.15  .31142 1.2626 149.7 21.4  57d 110
2026 01 18 02  06 09 59.400   +05 33 25.83  .31134 1.2623 149.6 21.4  57d 110
2026 01 18 03  06 09 50.112   +05 30 09.46  .31127 1.2621 149.5 21.4  57d 110
2026 01 18 04  06 09 40.827   +05 26 53.04  .31120 1.2618 149.4 21.4  57d 110
2026 01 18 05  06 09 31.545   +05 23 36.57  .31112 1.2615 149.3 21.5  57d 110
2026 01 18 06  06 09 22.265   +05 20 20.05  .31105 1.2612 149.2 21.5  57d 110
2026 01 18 07  06 09 12.988   +05 17 03.49  .31098 1.2610 149.1 21.5  57d 110
2026 01 18 08  06 09 03.714   +05 13 46.88  .31091 1.2607 149.0 21.5  57d 110
2026 01 18 09  06 08 54.443   +05 10 30.22  .31084 1.2604 148.9 21.5  57d 110
2026 01 18 10  06 08 45.175   +05 07 13.51  .31077 1.2602 148.9 21.5  57d 110
2026 01 18 11  06 08 35.910   +05 03 56.77  .31070 1.2599 148.8 21.5  57d 110
2026 01 18 12  06 08 26.647   +05 00 39.98  .31064 1.2596 148.7 21.5  57d 110
2026 01 18 13  06 08 17.388   +04 57 23.14  .31057 1.2594 148.6 21.5  57d 110
2026 01 18 14  06 08 08.132   +04 54 06.27  .31050 1.2591 148.5 21.5  57d 110
2026 01 18 15  06 07 58.878   +04 50 49.36  .31044 1.2588 148.4 21.5  57d 110
2026 01 18 16  06 07 49.628   +04 47 32.40  .31037 1.2586 148.3 21.5  57d 110
2026 01 18 17  06 07 40.381   +04 44 15.41  .31030 1.2583 148.2 21.5  57d 110